Regional Weather Roundup
Issued by NWS New Orleans/Baton Rouge, LA

Home | Current Version | Previous Version | Text Only | Print | Product List | Glossary Off
Versions: 1 2 3 4 5 6 7 8 9 10 11 12 13 14 15 16 17 18 19 20 21 22 23 24 25 26 27 28 29 30 31 32 33 34 35 36 37 38 39 40 41 42 43 44 45 46 47 48 49 50

849
ASUS44 KLIX 261910
RWRLIX
NEW ORLEANS REGIONAL WEATHER ROUNDUP
NATIONAL WEATHER SERVICE NEW ORLEANS LA
100 PM CST WED NOV 26 2014

NOTE: "FAIR" INDICATES FEW OR NO CLOUDS BELOW 12,000 FEET WITH NO
      SIGNIFICANT WEATHER AND/OR OBSTRUCTIONS TO VISIBILITY.
      SKY/WX - SKY CONDITION AND SIGNIFICANT WEATHER.
      TMP - AIR TEMPERATURE.     DP    - DEWPOINT TEMPERATURE.
      RH  - RELATIVE HUMIDITY.   PRES  - PRESSURE.
      HI  - HEAT INDEX.          WCI   - WIND CHILL INDEX.

*  THESE STATIONS ARE NOT NWS OR FAA STATIONS AND ARE NOT UNDER
   NWS QUALITY CONTROL.

LAZ038-040-048-061>063-065>067-069-262000-
SOUTHEAST LOUISIANA

CITY           SKY/WX    TMP DP  RH WIND       PRES   REMARKS
N.O. AUDUBON     N/A     68  38  34 MISG        N/A
N.O. INTL ARPT MOSUNNY   67  31  26 SW9       30.20F
N.O. LAKEFRONT SUNNY     65  33  30 SW8       30.22F
N.O. DOWNTOWN*   N/A     64  34  32 S7        30.22F
SLIDELL        SUNNY     62  33  33 SW8       30.20F
BATON ROUGE    SUNNY     69  33  26 SW22G30   30.18F
BOOTHVILLE     SUNNY     59  36  42 SW9       30.25F
BELLE CHASSE   SUNNY     66  29  24 W9        30.21F
BOGALUSA*        N/A     66  33  28 SW15      30.19F
NEW ROADS*       N/A     68  39  34 MISG      30.18F
GONZALES*        N/A     68  36  30 SW9G22    30.18F
HAMMOND*       SUNNY     66  32  28 S13       30.19F
HOUMA*         NOT AVBL
PORT FOURCHON* CLEAR     63  41  45 SW9       30.27F

$$

MSZ070-080>082-262000-
SOUTHERN MISSISSIPPI

CITY           SKY/WX    TMP DP  RH WIND       PRES   REMARKS
MCCOMB         SUNNY     64  34  32 SW17G25   30.15F
GULFPORT       SUNNY     57  33  40 VRB7      30.21F
BILOXI         SUNNY     56  32  39 S12       30.22F
PASCAGOULA     SUNNY     61  31  32 S8        30.20F
STENNIS ARPT*  SUNNY     63  21  20 W8        30.21F

$$

COASTAL OBSERVATIONS
LAKE AND NEARSHORE STATIONS

STATION/POSITION TIME  TEMP    WIND        PRES    WAVE
                       AIR SEA DIR/SP/G            HT/PER
                 (UTC) (F)     (DEG/KT/KT) (MB)    (FT/S)
PASCAGOULA       1900   55     240/  8/ 11 1022.8
WAVELAND YACHT   1900   54     190/  8/ 11 1022.2
GRAND ISLE       1900   61 59  250/  8/  9 1024.3
SOUTHWEST PASS   1900   65                 1024.5
NEW CANAL        1900   62 55  230/  7/ 11 1023.3
SHELL BEACH      1900   58 52  200/ 10/ 14 1023.2

OFFSHORE STATIONS

STATION/POSITION TIME  TEMP    WIND        PRES    WAVE
                       AIR SEA DIR/SP/G            HT/PER
                 (UTC) (F)     (DEG/KT/KT) (MB)    (FT/S)
64 S DAUPHIN ISL 1850   59 71  290/ 10/ 12 1024.3    2/ 4

$$




USA.gov is the U.S. government's official web portal to all federal, state and local government web resources and services.